�������l�o���
Date,Time,MP-1(��Sv/h),MP-2(��Sv/h),MP-3(��Sv/h),MP-4(��Sv/h),MP-5(��Sv/h),MP-6(��Sv/h),MP-7(��Sv/h),MP-8(��Sv/h),����,����(m/s),���J
2017/07/01,00:00,1.014,1.619,1.080,1.923,1.329,0.539,0.981,0.906,���쐼,4.2,��
2017/07/01,00:10,1.011,1.620,1.081,1.927,1.331,0.539,0.982,0.904,���쐼,4.5,��
2017/07/01,00:20,1.013,1.620,1.082,1.926,1.328,0.540,0.981,0.903,��,4.2,��
2017/07/01,00:30,1.014,1.622,1.081,1.927,1.329,0.539,0.982,0.904,��,2.9,��
2017/07/01,00:40,1.014,1.619,1.082,1.926,1.329,0.539,0.983,0.904,���쐼,1.5,��
2017/07/01,00:50,1.015,1.621,1.081,1.926,1.329,0.540,0.980,0.903,���k��,1.5,��
2017/07/01,01:00,1.015,1.621,1.080,1.926,1.326,0.538,0.982,0.905,��,1.2,��
2017/07/01,01:10,1.014,1.622,1.083,1.924,1.329,0.539,0.981,0.905,�쐼,1.7,��
2017/07/01,01:20,1.013,1.624,1.082,1.930,1.329,0.538,0.981,0.905,�쐼,3.7,��
2017/07/01,01:30,1.014,1.619,1.080,1.929,1.329,0.538,0.981,0.905,��쐼,4.4,��
2017/07/01,01:40,1.014,1.621,1.082,1.928,1.329,0.538,0.982,0.904,��쐼,4.2,��
2017/07/01,01:50,1.016,1.619,1.082,1.927,1.329,0.540,0.983,0.905,�쐼,4.3,��
2017/07/01,02:00,1.014,1.622,1.083,1.928,1.330,0.540,0.981,0.905,��쐼,4.0,��
2017/07/01,02:10,1.016,1.621,1.084,1.927,1.328,0.538,0.981,0.907,��쐼,4.9,��
2017/07/01,02:20,1.015,1.619,1.081,1.927,1.329,0.537,0.983,0.906,�쐼,4.1,��
2017/07/01,02:30,1.016,1.621,1.081,1.925,1.330,0.538,0.981,0.905,��쐼,3.2,��
2017/07/01,02:40,1.016,1.621,1.081,1.928,1.329,0.539,0.981,0.905,��쐼,2.2,��
2017/07/01,02:50,1.014,1.620,1.083,1.927,1.330,0.538,0.982,0.904,�쐼,0.8,��
2017/07/01,03:00,1.017,1.622,1.081,1.927,1.328,0.537,0.982,0.905,��쐼,1.5,��
2017/07/01,03:10,1.014,1.619,1.083,1.929,1.327,0.539,0.983,0.905,��쐼,2.6,��
2017/07/01,03:20,1.012,1.620,1.082,1.928,1.329,0.537,0.984,0.904,��쐼,3.0,��
2017/07/01,03:30,1.014,1.616,1.081,1.929,1.329,0.540,0.983,0.905,��쐼,3.3,��
2017/07/01,03:40,1.011,1.620,1.082,1.930,1.329,0.537,0.982,0.904,��쐼,3.5,��
2017/07/01,03:50,1.015,1.620,1.081,1.929,1.330,0.538,0.984,0.903,��쐼,4.3,��
2017/07/01,04:00,1.014,1.619,1.084,1.929,1.331,0.539,0.983,0.904,��쐼,4.7,��
2017/07/01,04:10,1.016,1.621,1.083,1.928,1.328,0.538,0.984,0.905,��쐼,3.4,��
2017/07/01,04:20,1.015,1.617,1.080,1.927,1.330,0.538,0.981,0.904,��쐼,2.9,��
2017/07/01,04:30,1.014,1.617,1.081,1.928,1.328,0.537,0.982,0.906,�쐼,3.5,��
2017/07/01,04:40,1.016,1.619,1.084,1.931,1.327,0.539,0.982,0.904,�쐼,3.8,��
2017/07/01,04:50,1.015,1.619,1.080,1.929,1.326,0.537,0.982,0.906,�쐼,4.0,��
2017/07/01,05:00,1.017,1.620,1.083,1.928,1.328,0.540,0.981,0.904,�쐼,3.7,��
2017/07/01,05:10,1.013,1.619,1.082,1.930,1.328,0.537,0.982,0.905,�쐼,4.0,��
2017/07/01,05:20,1.015,1.621,1.082,1.927,1.330,0.539,0.983,0.905,�쐼,4.3,��
2017/07/01,05:30,1.014,1.619,1.080,1.926,1.329,0.537,0.982,0.906,��쐼,3.9,��
2017/07/01,05:40,1.016,1.621,1.082,1.929,1.328,0.539,0.981,0.906,��쐼,4.1,��
2017/07/01,05:50,1.016,1.618,1.082,1.927,1.328,0.539,0.981,0.906,��쐼,5.0,��
2017/07/01,06:00,1.015,1.621,1.083,1.930,1.327,0.536,0.983,0.903,��쐼,4.9,��
2017/07/01,06:10,1.014,1.621,1.082,1.927,1.331,0.537,0.983,0.905,��쐼,5.4,��
2017/07/01,06:20,1.015,1.621,1.082,1.926,1.329,0.535,0.983,0.904,�쐼,6.5,��
2017/07/01,06:30,1.014,1.620,1.082,1.930,1.328,0.537,0.982,0.905,�쐼,4.8,��
2017/07/01,06:40,1.014,1.621,1.082,1.928,1.329,0.537,0.981,0.905,�쐼,4.7,��
2017/07/01,06:50,1.016,1.622,1.081,1.931,1.329,0.537,0.982,0.905,�쐼,6.1,��
2017/07/01,07:00,1.015,1.620,1.082,1.932,1.328,0.537,0.982,0.906,�쐼,6.4,��
2017/07/01,07:10,1.014,1.618,1.083,1.927,1.331,0.538,0.981,0.905,�쐼,5.8,��
2017/07/01,07:20,1.015,1.619,1.082,1.929,1.329,0.535,0.981,0.906,�쐼,3.9,��
2017/07/01,07:30,1.015,1.620,1.084,1.928,1.332,0.537,0.983,0.906,���쐼,4.8,��
2017/07/01,07:40,1.013,1.619,1.083,1.930,1.329,0.536,0.982,0.905,�쐼,7.2,��
2017/07/01,07:50,1.015,1.619,1.082,1.925,1.329,0.536,0.981,0.906,��쐼,6.8,�L
2017/07/01,08:00,1.015,1.617,1.082,1.926,1.330,0.537,0.982,0.905,��쐼,6.2,�L
2017/07/01,08:10,1.015,1.618,1.084,1.926,1.329,0.538,0.982,0.907,��쐼,6.5,�L
2017/07/01,08:20,1.015,1.618,1.082,1.928,1.331,0.537,0.982,0.904,��쐼,6.6,�L
2017/07/01,08:30,1.015,1.620,1.083,1.930,1.330,0.539,0.982,0.905,��,6.5,�L
2017/07/01,08:40,1.015,1.619,1.082,1.930,1.329,0.538,0.981,0.906,��,5.6,�L
2017/07/01,08:50,1.016,1.620,1.082,1.929,1.330,0.539,0.981,0.904,��쐼,4.2,�L
2017/07/01,09:00,1.015,1.619,1.081,1.931,1.329,0.541,0.982,0.906,��,4.2,�L
2017/07/01,09:10,1.016,1.619,1.083,1.926,1.328,0.538,0.982,0.906,��,4.3,�L
2017/07/01,09:20,1.016,1.618,1.082,1.928,1.327,0.539,0.980,0.904,��,3.5,�L
2017/07/01,09:30,1.013,1.619,1.083,1.930,1.326,0.539,0.980,0.905,��,2.5,�L
2017/07/01,09:40,1.014,1.619,1.082,1.927,1.330,0.539,0.981,0.903,�k�k��,1.5,�L
2017/07/01,09:50,1.012,1.617,1.083,1.928,1.328,0.538,0.983,0.905,��,1.9,�L
2017/07/01,10:00,1.017,1.618,1.082,1.928,1.328,0.540,0.981,0.905,���쐼,4.4,�L
2017/07/01,10:10,1.019,1.616,1.082,1.928,1.330,0.538,0.984,0.905,���쐼,4.1,��
2017/07/01,10:20,1.014,1.618,1.084,1.927,1.328,0.539,0.983,0.904,���쐼,2.8,�L
2017/07/01,10:30,1.014,1.619,1.083,1.931,1.328,0.539,0.982,0.904,�쐼,1.9,�L
2017/07/01,10:40,1.016,1.617,1.080,1.928,1.328,0.540,0.981,0.904,��쐼,3.1,�L
2017/07/01,10:50,1.015,1.614,1.080,1.927,1.327,0.541,0.981,0.903,���쐼,2.9,�L
2017/07/01,11:00,1.014,1.615,1.083,1.927,1.325,0.540,0.980,0.905,���쐼,5.7,�L
2017/07/01,11:10,1.013,1.613,1.081,1.924,1.328,0.538,0.983,0.905,���쐼,5.1,�L
2017/07/01,11:20,1.015,1.613,1.080,1.930,1.327,0.539,0.983,0.903,�쐼,4.9,�L
2017/07/01,11:30,1.013,1.614,1.080,1.930,1.325,0.540,0.982,0.905,�쐼,5.2,�L
2017/07/01,11:40,1.015,1.611,1.081,1.926,1.323,0.538,0.981,0.902,�쐼,6.0,�L
2017/07/01,11:50,1.014,1.611,1.081,1.927,1.325,0.540,0.983,0.902,�쐼,6.5,�L
2017/07/01,12:00,1.012,1.609,1.078,1.926,1.323,0.540,0.982,0.902,�쐼,7.9,�L
2017/07/01,12:10,1.012,1.613,1.081,1.927,1.323,0.539,0.981,0.902,�쐼,6.4,�L
2017/07/01,12:20,1.012,1.607,1.079,1.926,1.318,0.541,0.979,0.904,���쐼,5.9,�L
2017/07/01,12:30,1.010,1.608,1.081,1.923,1.320,0.540,0.981,0.902,�쐼,7.8,�L
2017/07/01,12:40,1.009,1.607,1.080,1.924,1.321,0.540,0.980,0.902,�쐼,6.7,�L
2017/07/01,12:50,1.008,1.606,1.081,1.927,1.319,0.539,0.978,0.902,�쐼,8.4,�L
2017/07/01,13:00,1.006,1.606,1.081,1.927,1.319,0.539,0.980,0.904,��,4.7,�L
2017/07/01,13:10,1.007,1.604,1.082,1.923,1.317,0.541,0.978,0.903,���k��,2.6,�L
2017/07/01,13:20,1.009,1.605,1.080,1.927,1.318,0.539,0.981,0.902,�쐼,3.9,�L
2017/07/01,13:30,1.008,1.606,1.079,1.925,1.318,0.538,0.978,0.902,��쐼,5.6,�L
2017/07/01,13:40,1.006,1.603,1.079,1.926,1.319,0.538,0.978,0.901,��쐼,3.6,�L
2017/07/01,13:50,1.005,1.604,1.080,1.924,1.319,0.537,0.979,0.900,���쐼,3.0,�L
2017/07/01,14:00,1.005,1.605,1.078,1.924,1.319,0.536,0.980,0.902,���k��,4.9,��
2017/07/01,14:10,1.008,1.606,1.079,1.921,1.316,0.536,0.980,0.903,�k�k��,4.2,�L
2017/07/01,14:20,1.009,1.607,1.077,1.921,1.318,0.538,0.979,0.902,�k�k��,3.9,�L
2017/07/01,14:30,1.007,1.604,1.076,1.925,1.318,0.537,0.979,0.902,�k�k��,7.0,�L
2017/07/01,14:40,1.007,1.603,1.080,1.923,1.320,0.536,0.980,0.902,�k��,4.6,�L
2017/07/01,14:50,1.006,1.604,1.078,1.923,1.319,0.537,0.977,0.901,�k��,2.6,�L
2017/07/01,15:00,1.006,1.603,1.076,1.924,1.317,0.536,0.979,0.901,�k��,3.3,�L
2017/07/01,15:10,1.007,1.604,1.075,1.925,1.320,0.535,0.980,0.901,�k��,4.2,��
2017/07/01,15:20,1.003,1.606,1.079,1.925,1.317,0.536,0.979,0.900,�k��,5.0,��
2017/07/01,15:30,1.007,1.606,1.076,1.924,1.318,0.536,0.978,0.902,�k��,5.0,��
2017/07/01,15:40,1.007,1.606,1.076,1.922,1.318,0.535,0.978,0.900,���k��,4.5,��
2017/07/01,15:50,1.006,1.610,1.077,1.927,1.320,0.535,0.980,0.902,��,3.4,��
2017/07/01,16:00,1.010,1.608,1.079,1.926,1.318,0.535,0.980,0.901,���쐼,2.9,��
2017/07/01,16:10,1.007,1.607,1.081,1.930,1.318,0.535,0.980,0.903,��,3.1,��
2017/07/01,16:20,1.009,1.608,1.078,1.925,1.324,0.535,0.981,0.900,���쐼,2.2,��
2017/07/01,16:30,1.010,1.607,1.079,1.924,1.322,0.536,0.980,0.900,���쐼,2.3,��
2017/07/01,16:40,1.008,1.607,1.079,1.923,1.318,0.538,0.982,0.900,�k��,1.9,��
2017/07/01,16:50,1.011,1.609,1.079,1.924,1.324,0.537,0.981,0.900,�k��,2.3,��
2017/07/01,17:00,1.010,1.610,1.077,1.923,1.324,0.537,0.983,0.897,���k��,2.6,��
2017/07/01,17:10,1.012,1.611,1.077,1.925,1.323,0.537,0.980,0.902,���k��,2.0,��
2017/07/01,17:20,1.010,1.613,1.077,1.925,1.320,0.537,0.982,0.900,���k��,2.0,��
2017/07/01,17:30,1.010,1.608,1.079,1.925,1.321,0.537,0.979,0.901,���k��,2.0,��
2017/07/01,17:40,1.013,1.611,1.079,1.926,1.321,0.537,0.979,0.901,���쐼,2.2,��
2017/07/01,17:50,1.008,1.612,1.079,1.925,1.322,0.537,0.982,0.902,���쐼,1.7,��
2017/07/01,18:00,1.009,1.610,1.079,1.928,1.323,0.538,0.980,0.900,�쐼,1.7,��
2017/07/01,18:10,1.010,1.608,1.079,1.929,1.323,0.535,0.980,0.904,�쐼,2.3,��
2017/07/01,18:20,1.009,1.610,1.076,1.927,1.321,0.537,0.980,0.903,��쓌,1.4,��
2017/07/01,18:30,1.010,1.610,1.077,1.930,1.325,0.538,0.981,0.902,��쐼,1.9,��
2017/07/01,18:40,1.007,1.611,1.077,1.928,1.324,0.538,0.980,0.905,���쐼,2.0,��
2017/07/01,18:50,1.007,1.611,1.079,1.925,1.323,0.537,0.980,0.904,���쐼,1.7,��
2017/07/01,19:00,1.009,1.612,1.079,1.924,1.323,0.539,0.980,0.903,���쐼,1.5,��
2017/07/01,19:10,1.008,1.612,1.079,1.925,1.322,0.537,0.980,0.904,��쐼,1.5,��
2017/07/01,19:20,1.009,1.613,1.081,1.926,1.323,0.536,0.982,0.904,��,0.6,��
2017/07/01,19:30,1.012,1.613,1.080,1.918,1.321,0.536,0.983,0.904,-,CALM,��
2017/07/01,19:40,1.012,1.611,1.080,1.928,1.323,0.537,0.981,0.903,���k��,1.5,��
2017/07/01,19:50,1.011,1.612,1.080,1.928,1.320,0.536,0.981,0.903,�k��,1.4,��
2017/07/01,20:00,1.012,1.611,1.077,1.926,1.322,0.536,0.983,0.905,��,1.1,��
2017/07/01,20:10,1.011,1.611,1.078,1.929,1.323,0.537,0.983,0.905,�쐼,1.4,��
2017/07/01,20:20,1.010,1.613,1.079,1.928,1.322,0.536,0.981,0.903,���쐼,2.3,��
2017/07/01,20:30,1.010,1.613,1.077,1.928,1.326,0.538,0.981,0.903,��,1.7,��
2017/07/01,20:40,1.011,1.613,1.079,1.926,1.322,0.536,0.982,0.905,���쐼,3.8,��
2017/07/01,20:50,1.009,1.612,1.080,1.927,1.322,0.538,0.983,0.905,��,3.9,��
2017/07/01,21:00,1.011,1.615,1.080,1.928,1.320,0.535,0.983,0.901,��,4.1,��
2017/07/01,21:10,1.011,1.612,1.080,1.928,1.323,0.537,0.981,0.906,���쐼,2.5,��
2017/07/01,21:20,1.011,1.615,1.079,1.927,1.322,0.535,0.981,0.903,��,1.9,��
2017/07/01,21:30,1.012,1.611,1.079,1.926,1.324,0.535,0.982,0.904,-,CALM,��
2017/07/01,21:40,1.010,1.611,1.078,1.927,1.323,0.536,0.981,0.904,���쐼,1.7,��
2017/07/01,21:50,1.011,1.610,1.078,1.930,1.321,0.538,0.981,0.902,���쐼,3.4,��
2017/07/01,22:00,1.011,1.613,1.080,1.924,1.322,0.537,0.982,0.904,���쐼,3.3,��
2017/07/01,22:10,1.009,1.611,1.079,1.926,1.325,0.538,0.983,0.903,��,4.0,��
2017/07/01,22:20,1.008,1.615,1.079,1.932,1.324,0.537,0.980,0.901,���쐼,3.9,��
2017/07/01,22:30,1.009,1.609,1.080,1.930,1.322,0.537,0.982,0.903,��,4.8,��
2017/07/01,22:40,1.012,1.613,1.082,1.929,1.325,0.536,0.981,0.903,��,6.1,��
2017/07/01,22:50,1.010,1.613,1.078,1.928,1.322,0.537,0.982,0.904,��,3.0,��
2017/07/01,23:00,1.010,1.614,1.079,1.929,1.323,0.536,0.983,0.905,-,CALM,��
2017/07/01,23:10,1.010,1.612,1.080,1.930,1.323,0.535,0.981,0.903,�k�k��,1.5,��
2017/07/01,23:20,1.009,1.611,1.079,1.928,1.324,0.536,0.981,0.905,�쐼,1.7,��
2017/07/01,23:30,1.011,1.615,1.079,1.928,1.324,0.537,0.982,0.904,���쐼,1.5,�L
2017/07/01,23:40,1.010,1.614,1.079,1.929,1.321,0.538,0.982,0.904,���k��,1.1,�L
2017/07/01,23:50,1.011,1.608,1.080,1.928,1.321,0.535,0.981,0.903,��,1.4,�L
